HAWK-C (43799 NORAD) Tracking and Keplerian Element Data

This shows tracking and keplerian element data for the satellite.

Feedback or suggestion? Click here.




ElementValue
Catalog43799
NameHAWK-C
Epoch Orbit711
Epoch Day20.44872917
Epoch Year2019
RAAN94.1475
Inclination97.7497
Eccentricity0.0014077
Argument of Perigee110.8657
Mean Anonmoly249.4073
Mean Motion14.963165
Decay Rate-2.76E-06
L11 43799U 18099AT 19020.44872917 -.00000276 00000-0 -19244-4 0 9994
L22 43799 97.7497 94.1475 0014077 110.8657 249.4073 14.96316500 7117

Live tracking and technical data element details for HAWK-C (NORAD 43799). HAWK-C can be tracked NOW for your location showing map with azimuth and elevation plus other details from your city location.

Track the satellite on the map from your city or location and see movement details for azimuth, elevation, latitude, longitude, range, height, and movement on the map or in text.







IsCatalogInMostPopularTable: catalog: 43799, numindb: 26
Update: records affected: 1



GetName: 43799 HAWK-C

Hit Count: updated at: Wed, 23 Jan 2019 02:41:09 GMT